Regional Weather Roundup
Issued by NWS

Home | Current Version | Previous Version | Text Only | Print | Product List | Glossary Off
Versions: 1 2 3 4 5 6 7 8 9 10 11 12 13 14 15 16 17 18 19 20 21 22 23 24 25 26 27

000
ASUS45 KPSR 240310
RWRAZ

ARIZONA HOURLY REGIONAL WEATHER ROUNDUP
NATIONAL WEATHER SERVICE PHOENIX AZ
800 PM MST SAT SEP 23 2017

NOTE: FAIR INDICATES FEW OR NO CLOUDS BELOW 12,000 FEET WITH NO
SIGNIFICANT WEATHER AND/OR OBSTRUCTIONS TO VISIBILITY.

AZZ001>003-036-240400-
NORTHWEST ARIZONA

CITY           SKY/WX    TMP DP  RH WIND       PRES   REMARKS
BULLHEAD CITY  CLEAR     77  30  18 N12       29.76R
KINGMAN        CLEAR     59  28  30 N12       29.88R
$$

AZZ004>008-015-016-018-240400-
NORTH CENTRAL ARIZONA

CITY           SKY/WX    TMP DP  RH WIND       PRES   REMARKS
GRAND CANYON   PTCLDY    45  26  47 W5        29.94R
WILLIAMS       PTCLDY    46  23  39 W7        29.96R
PRESCOTT       CLEAR     54  22  28 SW9       29.91R
FLAGSTAFF      CLEAR     47  17  30 W9        29.95R
PAYSON           N/A     54  16  22 CALM      29.92R
PAGE           MOCLDY    60  26  27 W14G22    29.82R
$$

AZZ009>014-017-240400-
NORTHEAST ARIZONA

CITY           SKY/WX    TMP DP  RH WIND       PRES   REMARKS
WINSLOW        CLEAR     57  16  20 SW13      29.88R
SAINT JOHNS    CLEAR     58  20  22 W8        29.90R
WINDOW ROCK    CLEAR     48  17  29 S6        29.93R
SHOW LOW       CLEAR     50  21  32 SW9       29.95R
$$

AZZ540-542>544-546-548-240400-
GREATER PHOENIX AREA

CITY           SKY/WX    TMP DP  RH WIND       PRES   REMARKS
PHOENIX        CLEAR     80  29  15 W8        29.71R
BUCKEYE        CLEAR     72  28  20 W8        29.74R
LUKE AFB       CLEAR     75  32  21 SW7       29.71R
DEER VALLEY    CLEAR     76  28  17 W8        29.73R
SCOTTSDALE     CLEAR     77  27  15 CALM      29.75R
MESA-GATEWAY   CLEAR     73  28  19 NW5       29.75R
CHANDLER       CLEAR     77  28  16 W7        29.73R
$$

AZZ539-553-240400-
SOUTHWEST MARICOPA COUNTY AND PINAL COUNTY

CITY           SKY/WX    TMP DP  RH WIND       PRES   REMARKS
CASA GRANDE    NOT AVBL
GILA BEND      FAIR      77  30  18 W8        29.71R
$$

AZZ503-504-507>509-240400-
SOUTHEAST ARIZONA

CITY           SKY/WX    TMP DP  RH WIND       PRES   REMARKS
TUCSON         CLEAR     76  25  15 NW9       29.80R
DAVIS-MONTHAN  CLEAR     74  26  17 NW7       29.78R
RYAN FIELD     CLEAR     73  30  20 MISG      29.80R
NOGALES        CLEAR     66  34  30 CALM      29.86R
SIERRA VISTA   CLEAR     67  34  30 W9        29.89R
DOUGLAS        MOCLDY    70  41  34 SW6       29.85R
SAFFORD        CLEAR     73  22  14 NW16G22   29.76R
$$

AZZ532-240400-
SOUTHWEST ARIZONA

CITY           SKY/WX    TMP DP  RH WIND       PRES   REMARKS
YUMA           CLEAR     79  34  19 W6        29.72R
$$

CAZ041-043-047-048-061-525>527-560>570-240400-
SOUTHERN CALIFORNIA

CITY           SKY/WX    TMP DP  RH WIND       PRES   REMARKS
DOWNTOWN L.A.  CLEAR     67  55  65 CALM      29.83S
L.A. AIRPORT   PTCLDY    65  57  75 SW6       29.84S
SAN DIEGO      PTCLDY    67  56  67 NW7       29.86R
BURBANK        CLEAR     65  51  60 CALM      29.84R
ONTARIO        CLEAR     66  51  58 SW8       29.84R
RIVERSIDE      CLEAR     65  51  60 W6        29.85R
PALM SPRINGS   CLEAR     79  46  31 NW17      29.78R
EL CENTRO NAS  PTCLDY    74  26  16 W12       29.74R
IMPERIAL       CLEAR     74  39  28 NW5       29.71R
BLYTHE         CLEAR     77  24  14 NW8       29.73R
NEEDLES        CLEAR     78  26  14 N10       29.77R
$$

NVZ020-UTZ003-240400-
SOUTHERN NEVADA-UTAH

CITY           SKY/WX    TMP DP  RH WIND       PRES   REMARKS
LAS VEGAS      PTCLDY    66  29  24 NE13      29.87R
SALT LAKE CITY RAIN      48  44  86 SE10      29.97R
$$

NMZ009-TXZ055-240400-
NEW MEXICO-WEST TEXAS

CITY           SKY/WX    TMP DP  RH WIND       PRES   REMARKS
ALBUQUERQUE    MOCLDY    68  47  46 N7        29.84S
EL PASO        PTCLDY    84  42  22 W22       29.76R
$$


........................KEY........................
SKY/WX - SKY CONDITION/WEATHER
TMP    - TEMPERATURE IN FAHRENHEIT
DP     - DEW POINT IN FAHRENHEIT
RH     - RELATIVE HUMIDITY IN PERCENT
WIND   - DIRECTION AND SPEED IN MILES PER HOUR (MPH)
VRB    - VARIABLE WIND DIRECTION
PRES   - MEAN SEA LEVEL PRESSURE IN INCHES OF MERCURY
         F - FALLING PRESSURE   R - RISING PRESSURE
         S - STEADY PRESSURE
VSB    - VISIBILITY IN MILES
HX     - HEAT INDEX IN FAHRENHEIT
WCI    - WIND CHILL INDEX IN FAHRENHEIT
TC     - TEMPERATURE IN CELSIUS WHICH IS ALSO KNOWN AS
         TEMPERATURE IN CENTIGRADE
AFB    - AIR FORCE BASE
         LUKE AFB IS LUKE AIR FORCE BASE
         DAVIS-MONTHAN IS DAVIS-MONTHAN AIR FORCE BASE
NAS    - NAVAL AIR STATION
         EL CENTRO NAS IS EL CENTRO NAVAL AIR STATION
N/A    - NOT AVAILABLE





USA.gov is the U.S. government's official web portal to all federal, state and local government web resources and services.